Date String (YYYY-MM-DD hh:mm:ss) UTC,Instrument flags,Ambient pressure (hPa),Sample flow (lpm),Bypass flow (lpm),Sample temperature (°C),Ambient temperature (°C),ASC tube jacket temperature (°C),LED temperature (°C),Box temperature (°C),Sample RH (%),Span deviation,Mass concentration (μg/m³),Mass concentration (μg/m³),Mass concentration (μg/m³)
DateTimeUTC,F1_M11,P_M11,Q1_M11,Q2_M11,T1_M11,T2_M11,T3_M11,T4_M11,T5_M11,U1_M11,ZSPAN_M11,X0_M11,X2_M11,X1_M11
2022-04-10 22:00:00,,0816.4,5.00,0.00,22.9,22.2,00.0,31.8,24.8,06.2,0000.0,0013.46,0004.22,0002.39
2022-04-10 22:01:00,,0816.5,5.00,0.00,22.9,22.2,00.0,31.8,24.8,05.7,0000.0,0013.54,0004.20,0002.39
2022-04-10 22:02:00,,0816.4,5.00,0.00,22.9,22.2,00.0,31.8,24.8,05.6,0000.0,0012.52,0004.23,0002.40
2022-04-10 22:03:00,,0816.4,5.00,0.00,23.0,22.3,00.0,31.8,24.8,05.3,0000.0,0012.61,0004.21,0002.42
2022-04-10 22:04:00,,0816.4,5.01,0.00,23.0,22.3,00.0,31.8,24.8,05.4,0000.0,0012.69,0004.27,0002.43
2022-04-10 22:05:00,,0816.4,5.00,0.00,23.0,22.3,00.0,31.8,24.8,05.7,0000.0,0012.74,0004.26,0002.41
2022-04-10 22:06:00,,0816.5,5.00,0.00,23.0,22.3,00.0,31.9,24.8,06.0,0000.0,0013.63,0004.30,0002.44
2022-04-10 22:07:00,,0816.5,5.00,0.00,23.0,22.3,00.0,31.9,24.9,06.2,0000.0,0014.29,0004.28,0002.45
2022-04-10 22:08:00,,0816.7,5.02,0.00,23.0,22.3,00.0,31.9,24.9,05.6,0000.0,0014.28,0004.28,0002.47
2022-04-10 22:09:00,,0816.6,5.00,0.00,23.1,22.3,00.0,31.9,24.9,05.5,0000.0,0013.55,0004.22,0002.48
2022-04-10 22:10:00,,0816.5,5.00,0.00,23.1,22.4,00.0,31.9,24.9,05.2,0000.0,0013.91,0004.18,0002.49
2022-04-10 22:11:00,,0816.5,5.00,0.00,23.1,22.4,00.0,31.9,25.0,05.5,0000.0,0013.75,0004.16,0002.53
2022-04-10 22:12:00,,0816.5,5.00,0.00,23.1,22.4,00.0,31.9,24.9,05.1,0000.0,0013.68,0004.13,0002.54
2022-04-10 22:13:00,,0816.5,5.00,0.00,23.1,22.4,00.0,32.0,25.0,04.9,0000.0,0014.27,0004.10,0002.55
2022-04-10 22:14:00,,0816.6,4.99,0.00,23.2,22.4,00.0,32.0,25.0,05.0,0000.0,0013.99,0004.11,0002.56
2022-04-10 22:15:00,,0816.6,4.99,0.00,23.2,22.4,00.0,32.0,25.0,05.4,0000.0,0013.86,0004.06,0002.57
2022-04-10 22:16:00,,0816.4,5.00,0.00,23.2,22.4,00.0,32.0,25.0,05.3,0000.0,0013.76,0004.07,0002.59
2022-04-10 22:17:00,,0816.3,5.01,0.00,23.2,22.4,00.0,32.0,25.1,05.5,0000.0,0012.62,0004.03,0002.57
2022-04-10 22:18:00,,0816.4,5.00,0.00,23.2,22.5,00.0,32.0,25.1,05.4,0000.0,0012.05,0004.03,0002.56
2022-04-10 22:19:00,,0816.3,4.99,0.00,23.3,22.5,00.0,32.1,25.1,05.2,0000.0,0011.80,0004.07,0002.56
2022-04-10 22:20:00,,0816.1,5.01,0.00,23.3,22.5,00.0,32.1,25.1,05.5,0000.0,0011.31,0004.11,0002.56
2022-04-10 22:21:00,,0816.2,5.00,0.00,23.3,22.4,00.0,32.1,25.1,05.3,0000.0,0011.13,0004.14,0002.57
2022-04-10 22:22:00,,0816.4,5.00,0.00,23.3,22.4,00.0,32.1,25.2,05.2,0000.0,0011.02,0004.17,0002.57
2022-04-10 22:23:00,,0816.4,4.99,0.00,23.3,22.4,00.0,32.1,25.2,05.2,0000.0,0010.85,0004.20,0002.57
2022-04-10 22:24:00,,0816.4,5.00,0.00,23.3,22.4,00.0,32.1,25.1,05.1,0000.0,0009.99,0004.19,0002.58
2022-04-10 22:25:00,,0816.4,5.02,0.00,23.3,22.4,00.0,32.1,25.1,05.1,0000.0,0010.14,0004.24,0002.57
2022-04-10 22:26:00,,0816.4,4.99,0.00,23.2,22.4,00.0,32.1,25.0,05.1,0000.0,0010.36,0004.31,0002.57
2022-04-10 22:27:00,,0816.4,5.00,0.00,23.2,22.4,00.0,32.1,25.0,05.4,0000.0,0010.40,0004.32,0002.58
2022-04-10 22:28:00,,0816.4,5.00,0.00,23.2,22.4,00.0,32.2,25.0,05.5,0000.0,0010.71,0004.36,0002.57
2022-04-10 22:29:00,,0816.6,5.01,0.00,23.2,22.4,00.0,32.2,25.0,05.9,0000.0,0011.12,0004.33,0002.60
2022-04-10 22:30:00,,0816.5,4.99,0.00,23.2,22.4,00.0,32.2,25.0,05.3,0000.0,0011.45,0004.34,0002.61
2022-04-10 22:31:00,,0816.4,4.99,0.00,23.2,22.4,00.0,32.2,25.0,05.0,0000.0,0011.31,0004.34,0002.63
2022-04-10 22:32:00,,0816.5,5.00,0.00,23.2,22.4,00.0,32.2,25.0,05.2,0000.0,0011.10,0004.30,0002.63
2022-04-10 22:33:00,,0816.5,5.01,0.00,23.2,22.5,00.0,32.2,25.0,05.3,0000.0,0010.99,0004.32,0002.64
2022-04-10 22:34:00,,0816.8,5.00,0.00,23.3,22.5,00.0,32.2,25.0,05.4,0000.0,0010.93,0004.30,0002.63
2022-04-10 22:35:00,,0816.6,5.00,0.00,23.3,22.5,00.0,32.2,25.1,05.4,0000.0,0011.53,0004.29,0002.63
2022-04-10 22:36:00,,0816.7,5.00,0.00,23.3,22.5,00.0,32.2,25.0,05.4,0000.0,0011.49,0004.26,0002.64
2022-04-10 22:37:00,,0816.6,5.00,0.00,23.3,22.5,00.0,32.2,25.0,05.5,0000.0,0011.60,0004.19,0002.66
2022-04-10 22:38:00,,0816.7,5.00,0.00,23.3,22.5,00.0,32.2,25.1,05.2,0000.0,0011.66,0004.15,0002.68
2022-04-10 22:39:00,,0816.7,4.99,0.00,23.3,22.5,00.0,32.2,25.1,05.1,0000.0,0012.11,0004.13,0002.72
2022-04-10 22:40:00,,0816.7,5.00,0.00,23.3,22.5,00.0,32.2,25.1,05.1,0000.0,0011.65,0004.15,0002.74
2022-04-10 22:41:00,,0816.7,5.01,0.00,23.3,22.5,00.0,32.2,25.1,05.2,0000.0,0010.98,0004.11,0002.74
2022-04-10 22:42:00,,0816.7,5.00,0.00,23.3,22.5,00.0,32.2,25.1,05.1,0000.0,0011.90,0004.12,0002.74
2022-04-10 22:43:00,,0816.6,4.99,0.00,23.3,22.5,00.0,32.2,25.1,05.2,0000.0,0012.93,0004.16,0002.76
2022-04-10 22:44:00,,0816.6,4.99,0.00,23.3,22.5,00.0,32.2,25.1,05.2,0000.0,0013.79,0004.21,0002.79
2022-04-10 22:45:00,,0816.6,5.00,0.00,23.3,22.5,00.0,32.2,25.1,05.1,0000.0,0014.54,0004.24,0002.80
2022-04-10 22:46:00,,0816.7,5.02,0.00,23.3,22.5,00.0,32.2,25.1,05.1,0000.0,0013.78,0004.22,0002.80
2022-04-10 22:47:00,,0816.7,5.00,0.00,23.3,22.5,00.0,32.2,25.2,04.8,0000.0,0013.73,0004.25,0002.81
2022-04-10 22:48:00,,0816.9,5.01,0.00,23.4,22.6,00.0,32.2,25.1,04.8,0000.0,0013.78,0004.34,0002.82
2022-04-10 22:49:00,,0816.7,5.00,0.00,23.4,22.6,00.0,32.3,25.2,04.9,0000.0,0013.90,0004.39,0002.84
2022-04-10 22:50:00,,0816.8,4.99,0.00,23.4,22.6,00.0,32.3,25.2,04.7,0000.0,0013.88,0004.39,0002.84
2022-04-10 22:51:00,,0816.7,5.00,0.00,23.4,22.6,00.0,32.3,25.2,04.7,0000.0,0013.93,0004.39,0002.83
2022-04-10 22:52:00,,0816.7,5.00,0.00,23.4,22.5,00.0,32.3,25.1,04.7,0000.0,0013.94,0004.41,0002.82
2022-04-10 22:53:00,,0816.6,5.00,0.00,23.3,22.5,00.0,32.3,25.1,05.1,0000.0,0013.75,0004.42,0002.81
2022-04-10 22:54:00,,0816.7,5.02,0.00,23.3,22.6,00.0,32.3,25.1,04.8,0000.0,0013.06,0004.43,0002.80
2022-04-10 22:55:00,,0816.7,5.00,0.00,23.4,22.6,00.0,32.3,25.1,04.9,0000.0,0012.23,0004.37,0002.77
2022-04-10 22:56:00,,0816.6,4.99,0.00,23.4,22.6,00.0,32.3,25.1,05.1,0000.0,0011.74,0004.34,0002.77
2022-04-10 22:57:00,,0816.6,5.00,0.00,23.4,22.7,00.0,32.3,25.2,04.8,0000.0,0011.65,0004.34,0002.78
2022-04-10 22:58:00,,0816.7,5.00,0.00,23.4,22.7,00.0,32.3,25.2,04.8,0000.0,0011.72,0004.35,0002.77
2022-04-10 22:59:00,,0816.7,5.00,0.00,23.4,22.7,00.0,32.3,25.2,04.8,0000.0,0011.51,0004.31,0002.77
